View from above orbital plane
|
View from above satellite
|
Ground track
|
The orbit data is extracted from the following two-line orbital elements,
1 11511U 79078B 21059.07425468 .00000027 00000-0 17897-4 0 9998
2 11511 74.0387 350.2285 0016864 263.7849 96.1383 14.36916532172784
Epoch (UTC): | 28 February 2021 01:46:55 |
Eccentricity: | 0.0016864 |
inclination: | 74.0387° |
perigee height: | 756 km |
apogee height: | 781 km |
right ascension of ascending node: | 350.2285° |
argument of perigee: | 263.7849° |
revolutions per day: | 14.36916532 |
mean anomaly at epoch: | 96.1383° |
orbit number at epoch: | 17278 |
The dashed part of the orbit path shows where the satellite is in the earth's shadow,
|
|